Rakoskert, Hungary

1:40 PM CET on January 24, 2017 (GMT +0100)
Ferihegy

Weather History for LHBP - May, 2013

Change the Weather History Date:

Saturday, May 4, 2013

  Actual Average Record
Temperature  
Mean Temperature 60 °F -  
Max Temperature 71 °F 71 °F 87 °F (2002)
Min Temperature 50 °F 48 °F 37 °F (2011)
Degree Days  
Heating Degree Days 4    
Growing Degree Days 10 (Base 50)    
Moisture  
Dew Point 53 °F    
Average Humidity 77    
Maximum Humidity 100    
Minimum Humidity 53    
Precipitation  
Precipitation 0.00 in - - ()
Sea Level Pressure  
Sea Level Pressure 29.99 in    
Wind  
Wind Speed 8 mph ()    
Max Wind Speed 14 mph    
Max Gust Speed -    
Visibility 6.2 miles    
Events      
Averages and records for this station are not official NWS values.
T = Trace of Precipitation, MM = Missing Value Source: Averaged Metar Reports

Daily Weather History Graph

Daily Weather History Graph

Search for Another Location

Airport or City:

Trip Planner

Search our weather history database for the weather conditions in past years. The results will help you decide how hot, cold, wet, or windy it might be!

Date:

Astronomy

May. 04, 2013 Rise Set
Actual Time 5:21 AM CEST 7:58 PM CEST
Civil Twilight 4:46 AM CEST 8:33 PM CEST
Nautical Twilight 4:03 AM CEST 9:17 PM CEST
Astronomical Twilight 3:12 AM CEST 10:09 PM CEST
Moon 2:33 AM CEST (5/4) 2:16 PM CEST (5/4)
Length of Visible Light 15h 46m
Length of Day
14h 37m
Waning Crescent, 29% of the Moon is Illuminated
May 4
Waning Crescent
May 10
New
May 18
First Quarter
May 25
Full
May 31
Last Quarter

Hourly Weather History & Observations

Time (CEST) Temp. Dew Point Humidity Pressure Visibility Wind Dir Wind Speed Gust Speed Precip Events Conditions
12:00 AM 57.2 °F 53.6 °F 88% 29.92 in - WNW 11.5 mph - N/A   Clear
12:30 AM 55.4 °F 53.6 °F 94% 29.92 in - WNW 10.4 mph - N/A   Clear
1:00 AM 55.4 °F 53.6 °F 94% 29.92 in - WNW 8.1 mph - N/A   Clear
1:30 AM 55.4 °F 53.6 °F 94% 29.92 in - WNW 12.7 mph - N/A   Clear
2:00 AM 55.4 °F 53.6 °F 94% 29.92 in - WNW 11.5 mph - N/A   Clear
2:30 AM 55.4 °F 51.8 °F 88% 29.92 in - WNW 11.5 mph - N/A   Clear
3:00 AM 53.6 °F 51.8 °F 94% 29.89 in - West 4.6 mph - N/A   Clear
3:30 AM 53.6 °F 51.8 °F 94% 29.92 in - Variable 2.3 mph - N/A   Clear
4:00 AM 50.0 °F 48.2 °F 94% 29.92 in - Variable 2.3 mph - N/A   Clear
4:30 AM 51.8 °F 51.8 °F 100% 29.92 in - West 4.6 mph - N/A   Clear
5:00 AM 50.0 °F 50.0 °F 100% 29.92 in - Variable 3.5 mph - N/A   Clear
5:30 AM 50.0 °F 50.0 °F 100% 29.95 in - Variable 3.5 mph - N/A   Clear
6:00 AM 51.8 °F 51.8 °F 100% 29.95 in 6.2 mi West 6.9 mph - N/A   Partly Cloudy
6:30 AM 53.6 °F 53.6 °F 100% 29.95 in 6.2 mi West 8.1 mph - N/A   Partly Cloudy
7:00 AM 55.4 °F 53.6 °F 94% 29.98 in 6.2 mi West 10.4 mph - N/A   Scattered Clouds
7:30 AM 55.4 °F 53.6 °F 94% 29.98 in 6.2 mi West 8.1 mph - N/A   Scattered Clouds
8:00 AM 57.2 °F 53.6 °F 88% 29.98 in 6.2 mi WSW 6.9 mph - N/A   Scattered Clouds
8:30 AM 59.0 °F 53.6 °F 82% 30.01 in 6.2 mi West 8.1 mph - N/A   Scattered Clouds
9:00 AM 59.0 °F 51.8 °F 77% 30.01 in 6.2 mi West 8.1 mph - N/A   Scattered Clouds
9:30 AM 62.6 °F 53.6 °F 72% 30.01 in 6.2 mi West 6.9 mph - N/A   Partly Cloudy
10:00 AM 62.6 °F 53.6 °F 72% 30.01 in 6.2 mi West 5.8 mph - N/A   Partly Cloudy
10:30 AM 62.6 °F 53.6 °F 72% 30.01 in 6.2 mi NW 8.1 mph - N/A   Partly Cloudy
11:00 AM 66.2 °F 55.4 °F 68% 30.01 in 6.2 mi West 8.1 mph - N/A   Partly Cloudy
11:30 AM 66.2 °F 53.6 °F 64% 30.01 in 6.2 mi West 6.9 mph - N/A   Partly Cloudy
12:00 PM 68.0 °F 53.6 °F 60% 30.01 in 6.2 mi WSW 8.1 mph - N/A   Partly Cloudy
12:30 PM 69.8 °F 55.4 °F 60% 30.01 in 6.2 mi WSW 10.4 mph - N/A   Scattered Clouds
1:00 PM 69.8 °F 55.4 °F 60% 30.01 in 6.2 mi WSW 12.7 mph - N/A   Partly Cloudy
1:30 PM 69.8 °F 53.6 °F 56% 30.01 in 6.2 mi WSW 11.5 mph - N/A   Scattered Clouds
2:00 PM 69.8 °F 53.6 °F 56% 30.01 in 6.2 mi West 12.7 mph - N/A   Scattered Clouds
2:30 PM 69.8 °F 53.6 °F 56% 30.01 in - WNW 10.4 mph - N/A   Clear
3:00 PM 69.8 °F 53.6 °F 56% 30.01 in - NW 13.8 mph - N/A   Clear
3:30 PM 69.8 °F 55.4 °F 60% 30.01 in - West 12.7 mph - N/A   Clear
4:00 PM 69.8 °F 53.6 °F 56% 30.01 in - NW 11.5 mph - N/A   Clear
4:30 PM 69.8 °F 53.6 °F 56% 30.01 in - WNW 11.5 mph - N/A   Clear
5:00 PM 71.6 °F 53.6 °F 53% 30.01 in - WNW 12.7 mph - N/A   Clear
5:30 PM 69.8 °F 51.8 °F 53% 30.01 in - WNW 13.8 mph - N/A   Clear
6:00 PM 69.8 °F 51.8 °F 53% 30.01 in - WNW 13.8 mph - N/A   Clear
6:30 PM 69.8 °F 53.6 °F 56% 30.01 in - NW 11.5 mph - N/A   Clear
7:00 PM 68.0 °F 53.6 °F 60% 30.01 in - NW 10.4 mph - N/A   Clear
7:30 PM 64.4 °F 53.6 °F 68% 30.01 in - WNW 11.5 mph - N/A   Clear
8:00 PM 64.4 °F 53.6 °F 68% 30.04 in - WNW 10.4 mph - N/A   Clear
8:30 PM 60.8 °F 53.6 °F 77% 30.04 in - WNW 10.4 mph - N/A   Clear
9:00 PM 59.0 °F 53.6 °F 82% 30.04 in - WNW 6.9 mph - N/A   Clear
9:30 PM 59.0 °F 53.6 °F 82% 30.04 in - Variable 3.5 mph - N/A   Clear
10:00 PM 53.6 °F 50.0 °F 88% 30.06 in - Variable 2.3 mph - N/A   Clear
10:30 PM 55.4 °F 51.8 °F 88% 30.06 in - WNW 4.6 mph - N/A   Clear
11:00 PM 55.4 °F 51.8 °F 88% 30.06 in - Variable 3.5 mph - N/A   Clear
11:30 PM 51.8 °F 50.0 °F 94% 30.06 in - Variable 2.3 mph - N/A   Clear